Weather History for Kelsey Dam CS, MB

Change the Weather History Date:

Tuesday, July 2, 2013

  Actual Average Record
Temperature  
Mean Temperature 70 °F -  
Max Temperature 82 °F - - ()
Min Temperature 57 °F - - ()
Cooling Degree Days 4    
Growing Degree Days 20 (Base 50)    
Moisture  
Dew Point 58 °F    
Average Humidity 69    
Maximum Humidity 94    
Minimum Humidity 32    
Precipitation  
Precipitation 0.01 in - - ()
Sea Level Pressure  
Sea Level Pressure 29.98 in    
Wind  
Wind Speed 5 mph ()    
Max Wind Speed 10 mph    
Max Gust Speed 18 mph    
T = Trace of Precipitation, MM = Missing Value Source: Averaged Metar Reports

Daily Weather History Graph

Daily Weather History Graph

Search for Another Location

Airport:

Trip Planner

Search our weather history database for the weather conditions in past years. The results will help you decide how hot, cold, wet, or windy it might be!

Date:

Astronomy

Jul. 02, 2013 Rise Set
Actual Time 4:45 AM CDT 10:14 PM CDT
Civil Twilight 3:44 AM CDT 11:15 PM CDT
Nautical Twilight 2:02 AM CDT 12:57 AM CDT
Astronomical Twilight Sun does not rise Sun does not rise
Moon 1:25 AM CDT (7/2) 4:59 PM CDT (7/2)
Length of Visible Light 19h 31m
Length of Day
17h 29m
Waning Crescent, 26% of the Moon is Illuminated
Jul 2
Waning Crescent
Jul 8
New
Jul 15
First Quarter
Jul 22
Full
Jul 29
Last Quarter

Hourly Weather History & Observations

Time (CDT) Temp. Heat Index Dew Point Humidity Pressure Visibility Wind Dir Wind Speed Gust Speed Precip Events Conditions
12:00 AM 65.8 °F - 61.2 °F 85% 29.96 in - SW 5.8 mph - 0.01 in   Unknown
1:00 AM 63 °F - 61 °F 92% 29.96 in - WSW 3.5 mph - -  
1:00 AM 63.1 °F - 61.2 °F 93% 29.96 in - WSW 3.5 mph - N/A   Unknown
2:00 AM 60.8 °F - 59.0 °F 94% 29.96 in - East 3.5 mph - N/A   Unknown
3:00 AM 60.4 °F - 58.6 °F 94% 29.98 in - ENE 3.5 mph - N/A   Unknown
4:00 AM 58.8 °F - 56.8 °F 93% 30.00 in - ENE 4.6 mph - N/A   Unknown
5:00 AM 59.5 °F - 57.6 °F 93% 30.00 in - ENE 4.6 mph - N/A   Unknown
6:00 AM 60.8 °F - 59.0 °F 94% 30.01 in - East 5.8 mph - N/A   Unknown
7:00 AM 60 °F - 58 °F 89% 30.04 in - East 9.2 mph - -  
7:00 AM 59.9 °F - 57.6 °F 92% 30.04 in - East 9.2 mph - N/A   Unknown
8:00 AM 59.2 °F - 56.1 °F 90% 30.06 in - East 8.1 mph - N/A   Unknown
9:00 AM 60.4 °F - 55.4 °F 83% 30.07 in - East 10.4 mph - N/A   Unknown
10:00 AM 62.6 °F - 55.4 °F 77% 30.06 in - East 8.1 mph - N/A   Unknown
11:00 AM 66.4 °F - 55.8 °F 69% 30.06 in - ENE 8.1 mph - N/A   Unknown
12:00 PM 70.3 °F - 56.5 °F 61% 30.06 in - East 6.9 mph - 0.01 in   Unknown
1:00 PM 73 °F - 57 °F 46% 30.04 in - East 8.1 mph - -  
1:00 PM 73.0 °F - 56.7 °F 56% 30.04 in - East 8.1 mph - N/A   Unknown
2:00 PM 75.6 °F - 57.6 °F 53% 30.02 in - East 6.9 mph 18.4 mph N/A   Unknown
3:00 PM 77.9 °F - 56.7 °F 48% 30.01 in - SE 5.8 mph - N/A   Unknown
4:00 PM 79.7 °F - 57.2 °F 46% 29.99 in - SE 5.8 mph - N/A   Unknown
5:00 PM 81.0 °F 81.0 °F 57.4 °F 44% 29.96 in - SSW 6.9 mph - N/A   Unknown
6:00 PM 82.6 °F 82.3 °F 58.3 °F 43% 29.94 in - South 4.6 mph - N/A   Unknown
7:00 PM 83 °F - 58 °F 32% 29.91 in - SSE 4.6 mph - -  
7:00 PM 82.8 °F 82.5 °F 57.9 °F 43% 29.91 in - SSE 4.6 mph - N/A   Unknown
8:00 PM 82.0 °F 82.1 °F 58.6 °F 45% 29.89 in - SSE 4.6 mph - N/A   Unknown
9:00 PM 79.7 °F - 59.4 °F 50% 29.87 in - SSE 4.6 mph - N/A   Unknown
10:00 PM 76.1 °F - 59.9 °F 57% 29.85 in - SSE 3.5 mph - N/A   Unknown
11:00 PM 74.3 °F - 60.4 °F 62% 29.83 in - SSE 5.8 mph - N/A   Unknown